sat.trackr.live / text

‹ back to catalog

STARLINK-35236

NORAD 66008 · 2025-232D

PAYLOAD ACTIVE UNKNOWN

§ Identity

Operator
Country
US
Launch date
2025-10-16
Launch site
AFETR
Launch vehicle
Mass (kg)
RCS (m²)

Purposes: comms

External: N2YO · Heavens-Above · Gunter

§ Orbital elements

Epoch: 2026-05-25T04:01:22.977120Z

Period
94.10 min
Inclination
53.1593°
Eccentricity
0.0001260
Mean motion
15.30210545 rev/d
Perigee alt
474.3 km
Apogee alt
476.0 km
Semi-major
6,853.3 km
B*
7.2904e-4
RAAN
108.7471°
Arg perigee
87.3779°
Mean anomaly
272.7366°
Rev number
3,512

§ Raw data

STARLINK-352361 66008U 25232D   26145.16762705  .00021302  00000+0  72904-3 0  99982 66008  53.1593 108.7471 0001260  87.3779 272.7366 15.30210545 35126

JSON: /api/v1/satellites/66008 · /tle

For live sub-satellite position, see the globe view (requires WebGL).

§ Visibility from observer

Set your observer location to see the next 7 days of passes ≥ 10°. The values pass through the URL so the page stays shareable.

No JS? Fill the form by hand. The geolocation button needs JavaScript.